Theta_e
297 298 298 298 298 299 299 299 299 299 298 298 298 299 299 298 299 300 301 302 302 302 304 305 304 306 307 309 310 315 319 324 328 330 330 329 332 335
297 298 298 298 298 298 298 298 297 297 297 297 296 296 297 297 297 299 299 300 301 301 302 302 303 307 306 307 308 311 316 319 325 329 330 330 330 332
298 298 298 297 297 297 297 297 297 296 296 296 296 296 296 296 296 296 297 298 299 300 301 301 302 305 308 309 308 309 311 313 320 327 329 328 328 329
297 297 297 297 297 297 297 296 296 296 296 296 296 296 297 297 297 296 296 296 298 299 301 302 303 303 306 305 304 303 303 306 309 321 326 327 327 326
296 297 297 297 297 297 297 297 297 297 297 297 297 297 297 297 297 297 296 296 296 298 300 301 301 302 305 305 305 303 302 303 306 310 323 324 326 326
297 297 297 297 297 297 298 297 297 297 298 297 297 297 297 297 297 297 296 296 297 297 298 300 300 301 302 304 304 304 302 302 306 309 318 321 324 324
298 298 298 298 299 301 301 300 298 298 298 298 298 297 297 297 297 297 297 296 296 296 297 300 301 300 302 304 304 302 302 301 305 310 312 321 321 323
299 299 298 299 299 300 300 301 302 302 299 298 298 298 298 298 297 297 297 297 297 298 299 299 299 301 301 302 302 302 303 303 303 309 312 321 321 322
298 299 298 298 299 298 299 299 300 300 301 302 300 298 299 298 298 298 298 297 297 299 300 300 300 301 302 302 304 305 304 305 303 307 312 319 321 322
298 297 298 297 298 298 298 299 300 300 300 300 301 301 299 298 298 299 299 298 298 298 299 299 300 301 301 302 302 303 306 308 304 306 309 317 319 321
297 297 297 297 297 297 299 299 300 301 301 303 303 301 301 300 299 299 299 299 299 299 300 300 299 300 301 301 303 304 305 307 308 307 310 315 318 320
295 295 296 296 297 297 298 300 300 300 301 302 303 303 303 303 302 300 298 298 298 299 299 300 300 301 302 302 301 304 306 309 309 312 311 314 317 319
295 295 295 295 296 297 299 300 300 300 299 300 300 299 299 299 300 300 299 297 297 299 300 300 301 302 302 303 305 304 306 306 307 310 312 314 316 317
294 294 294 295 296 297 300 300 300 300 300 298 299 299 298 299 299 299 299 298 299 299 299 299 301 302 303 303 303 306 305 305 307 308 314 314 315 317
293 293 294 293 295 298 299 299 299 299 299 300 299 299 299 299 298 299 299 299 299 300 300 300 301 302 302 304 304 305 307 307 308 309 314 315 315 316
293 292 292 292 294 298 298 298 298 297 297 297 298 299 299 300 299 299 299 299 299 299 300 300 300 301 302 301 301 304 307 310 311 312 314 314 315 317
294 290 290 291 293 294 296 296 298 296 295 296 298 300 300 300 300 299 299 299 299 299 300 301 301 301 301 301 301 303 307 309 312 312 314 315 316 317
292 290 290 290 291 292 293 295 297 296 296 297 299 300 300 300 298 298 298 298 298 300 299 300 302 302 302 301 300 303 307 310 312 312 313 314 314 315
290 290 290 290 289 290 292 292 294 295 296 298 299 300 300 300 301 300 300 301 301 301 301 302 301 301 300 303 303 302 307 309 312 313 313 313 313 314
290 290 289 288 289 289 290 292 293 293 295 298 300 300 300 300 300 298 297 298 299 299 298 300 302 300 301 305 305 305 307 309 310 312 312 312 312 313
289 289 289 289 288 288 289 290 291 292 294 298 300 300 301 301 301 300 303 304 303 303 304 304 303 303 304 305 305 305 306 309 309 309 310 309 309 308
288 288 288 288 288 288 288 289 290 292 294 296 299 300 301 301 301 301 302 303 304 305 305 305 305 304 304 304 304 304 305 308 311 310 311 310 309 307
288 288 288 288 288 287 287 288 289 291 292 294 298 300 301 301 301 301 301 303 303 304 305 305 304 303 304 304 304 305 307 307 308 308 308 309 309 309
Wind_Speed
28 28 28 28 27 27 27 25 17 11 10 16 18 22 29 30 24 22 23 21 21 21 22 23 30 27 28 26 25 24 23 26 26 37 34 35 35 36
27 26 26 25 24 24 24 23 20 19 13 20 22 26 31 39 37 28 27 24 23 21 25 28 26 27 30 28 26 24 24 27 27 27 32 34 36 36
26 26 26 25 26 27 27 26 26 26 16 29 26 26 28 30 30 32 31 27 26 25 26 26 27 25 27 26 24 25 26 26 32 32 33 35 34 34
24 25 26 24 25 25 25 26 27 28 27 24 24 25 28 30 32 31 28 28 26 23 23 25 28 25 28 29 30 30 29 29 28 33 31 36 34 33
27 27 28 28 27 27 28 28 27 29 29 28 26 27 28 28 29 31 30 31 30 27 25 27 28 25 26 30 27 27 29 29 30 28 32 34 37 33
26 28 30 30 31 32 32 34 34 31 29 29 27 26 26 28 28 27 22 24 26 25 26 25 27 26 24 25 26 26 29 30 29 29 32 33 34 34
29 30 32 34 36 39 37 33 34 33 31 30 27 27 25 24 25 26 25 22 25 27 26 25 27 27 26 27 27 35 36 33 30 28 30 34 34 35
28 28 27 34 34 33 34 35 36 31 33 30 26 23 28 30 30 26 22 17 7 23 26 28 27 20 26 26 30 35 32 33 32 29 28 32 35 35
28 26 28 28 28 30 33 35 35 37 40 37 29 31 28 31 29 25 24 22 22 23 19 14 18 19 18 23 21 26 29 31 32 30 28 34 37 37
26 26 24 28 28 29 33 34 35 38 39 39 36 27 33 30 31 29 26 24 24 25 22 10 19 18 20 23 25 27 27 28 31 30 29 34 38 39
23 25 26 29 28 32 32 33 27 30 32 38 40 28 26 28 31 25 21 17 11 14 21 21 20 20 24 25 24 26 25 32 30 30 29 34 39 41
24 24 24 26 27 32 31 31 22 22 20 7 18 19 19 22 30 34 27 21 16 8 21 19 20 17 5 22 28 26 24 22 27 27 28 33 40 43
22 24 24 25 29 32 33 25 22 18 10 7 9 12 12 14 19 24 31 25 21 16 12 22 18 17 16 9 13 25 24 23 24 26 27 33 41 45
22 24 27 30 33 31 29 19 17 12 11 9 11 15 17 18 19 22 28 30 28 28 22 20 18 16 16 10 10 12 27 25 26 27 27 32 38 44
23 26 26 30 30 25 20 10 5 8 9 9 16 18 18 19 20 20 23 29 32 33 28 28 24 22 17 8 6 14 14 22 25 27 25 29 36 42
24 17 23 25 22 14 11 8 9 10 14 16 16 17 14 16 20 20 20 21 21 22 26 31 31 27 20 19 17 16 19 14 25 29 26 26 29 35
22 19 20 20 19 17 16 15 7 13 14 13 13 14 12 15 18 19 20 16 14 14 17 22 27 27 27 23 15 18 21 23 26 27 30 27 29 34
13 13 13 15 16 16 16 17 13 17 14 13 13 8 9 10 13 16 20 19 18 21 21 20 20 15 13 18 22 16 22 24 24 29 29 27 24 29
12 12 11 13 14 15 15 15 16 19 22 16 13 6 8 11 4 3 6 17 17 14 16 20 23 17 9 8 14 24 22 25 25 26 27 27 22 28
14 12 12 12 14 16 16 16 17 18 19 19 10 3 6 5 3 6 13 13 11 9 12 23 28 25 15 9 5 9 22 27 28 20 26 27 26 32
15 14 13 14 13 16 16 17 15 16 19 19 4 2 3 4 2 6 10 17 7 10 5 19 24 24 20 19 10 7 15 25 32 20 37 35 33 27
17 15 15 15 14 14 16 16 15 16 16 16 10 10 10 2 6 10 13 14 13 16 18 20 23 23 18 17 11 8 14 26 28 39 38 33 32 9
21 19 17 16 14 14 15 15 14 12 13 13 15 14 9 9 10 11 10 13 16 19 15 17 18 20 16 17 17 7 28 29 38 32 30 36 26 31
Wind_Direction
278 276 274 275 276 273 275 272 273 287 282 280 294 285 290 297 303 306 303 283 265 269 278 276 266 259 256 255 258 261 271 249 258 222 219 222 225 219
280 278 275 275 276 278 280 283 281 281 286 276 279 279 274 277 286 292 293 306 274 268 272 279 280 261 252 247 250 252 256 249 256 244 221 223 222 222
283 280 278 278 278 274 271 268 264 261 262 275 270 270 272 272 285 284 286 292 302 273 269 274 268 270 249 240 244 246 250 250 243 238 231 225 222 221
289 286 280 277 273 269 267 264 259 253 252 265 263 261 261 265 268 274 283 283 282 288 273 271 263 259 250 250 256 259 255 250 250 240 231 226 223 221
285 281 278 274 271 270 265 262 258 254 253 255 260 261 260 261 262 262 264 274 272 270 275 270 274 272 252 247 246 249 253 252 247 246 230 229 223 219
278 278 278 276 272 270 264 260 259 256 253 251 251 254 258 259 258 261 261 259 265 261 265 267 267 265 260 247 247 250 253 253 248 244 232 224 222 219
281 282 279 275 275 273 267 261 248 249 248 245 243 244 244 243 242 248 252 256 258 264 260 264 262 258 257 246 252 252 253 247 246 241 235 221 220 213
280 284 284 283 286 287 287 285 283 264 241 243 242 236 235 236 240 236 234 236 253 259 254 257 256 267 251 252 255 249 249 243 239 238 233 220 215 208
290 289 289 288 292 290 290 288 285 280 276 271 247 234 236 234 234 234 230 225 232 245 266 264 254 260 263 252 259 253 242 238 232 235 230 217 211 202
292 292 293 301 289 296 295 287 282 275 267 264 256 252 234 231 231 232 235 226 237 250 249 254 266 267 263 261 253 257 242 235 230 232 228 217 209 202
299 298 293 293 288 300 298 299 291 291 283 267 246 238 235 228 222 224 226 218 231 240 245 243 250 260 262 263 264 256 251 231 230 226 225 215 207 199
303 301 298 297 296 304 296 296 286 298 314 279 236 239 243 237 225 215 218 218 225 244 241 230 242 239 260 260 255 248 241 226 222 224 224 217 206 199
308 306 303 305 303 304 299 288 293 290 295 261 231 238 237 242 238 228 211 215 219 223 224 209 231 226 221 267 250 232 232 230 226 227 227 218 206 199
320 311 306 308 308 302 301 293 292 285 256 254 245 247 245 239 236 229 224 220 227 231 233 234 242 227 220 232 241 250 225 229 226 224 215 213 206 201
317 311 318 316 308 298 300 295 327 357 343 290 253 248 245 245 238 228 229 232 234 239 239 237 237 240 238 229 252 237 210 215 215 212 192 193 197 196
317 318 329 327 334 4 6 344 329 338 320 297 288 279 270 247 228 225 219 221 232 243 244 236 234 235 232 241 253 273 214 195 199 194 181 180 181 184
324 337 336 336 342 350 348 357 342 342 316 301 286 283 234 235 233 234 233 229 225 229 235 230 227 230 232 240 254 252 222 196 187 178 166 163 171 177
337 335 330 333 337 340 337 338 338 339 322 315 307 274 230 247 259 243 233 226 227 227 222 210 199 198 217 247 249 254 220 191 180 175 167 163 158 172
327 318 323 325 329 329 329 326 319 320 334 334 313 247 258 265 243 302 217 207 217 216 197 195 197 188 195 200 192 229 210 187 167 171 165 162 161 161
320 310 313 322 320 320 323 320 325 326 328 328 310 260 271 286 112 277 244 231 238 212 228 235 194 183 184 178 131 182 199 181 173 175 153 148 150 172
316 311 307 307 308 311 313 318 319 321 321 333 291 217 242 323 287 315 42 79 165 170 120 113 149 175 159 147 127 141 190 185 181 178 138 133 136 141
318 309 306 300 298 298 303 307 314 319 332 349 342 284 307 3 65 49 64 81 56 79 103 104 114 128 132 141 136 135 173 172 166 157 156 154 147 144
308 306 303 297 289 286 287 293 295 307 322 336 3 9 36 50 57 76 67 68 75 73 92 111 106 107 105 120 130 130 134 134 138 129 130 152 151 156